Date,TemperatureHighF,TemperatureAvgF,TemperatureLowF,DewpointHighF,DewpointAvgF,DewpointLowF,HumidityHigh,HumidityAvg,HumidityLow,PressureMaxIn,PressureMinIn,WindSpeedMaxMPH,WindSpeedAvgMPH,GustSpeedMaxMPH,PrecipitationSumIn
2012-12-1,76.8,67.7,57.6,60.0,57.3,53.0,87,71,50,29.96,29.75,25,10,0,0.00
2012-12-2,76.5,65.8,57.2,59.0,55.9,50.0,90,72,51,30.00,29.86,16,5,0,0.00
2012-12-3,76.3,69.0,57.0,59.0,56.6,49.0,76,65,49,29.92,29.74,27,12,0,0.18
2012-12-4,63.1,56.0,48.3,49.0,33.6,25.0,77,45,25,30.29,29.93,13,5,0,0.01
2012-12-5,61.5,50.8,40.8,36.0,30.2,24.0,71,48,25,30.30,30.01,15,2,0,0.00
2012-12-6,62.6,52.2,43.8,48.0,42.5,36.0,84,70,54,30.00,29.77,17,5,0,0.00
2012-12-7,56.7,53.1,49.9,53.0,49.0,45.0,90,86,81,29.86,29.75,5,0,0,0.00
2012-12-8,55.9,48.1,48.3,50.0,36.4,-99.9,90,78,73,29.91,29.77,7,-71,0,0.00
2012-12-9,50.8,44.3,30.1,47.0,31.6,-99.9,89,68,42,30.11,29.71,18,-26,0,0.00
2012-12-10,35.8,28.6,23.2,13.0,10.9,9.0,59,48,33,30.18,30.07,14,4,0,0.00
2012-12-11,50.4,31.5,20.5,14.0,0.9,-99.9,61,36,16,30.21,30.08,11,-71,0,0.00
2012-12-12,51.7,40.2,27.2,18.0,11.0,7.0,52,32,19,30.29,30.15,14,5,0,0.00
2012-12-13,60.7,47.6,36.0,24.0,18.7,14.0,46,33,22,30.21,30.08,23,9,0,0.00
2012-12-14,54.2,45.0,43.5,42.0,23.8,-99.9,86,50,33,30.11,29.73,19,-35,0,0.10
2012-12-15,62.7,54.5,45.5,48.0,38.6,35.0,90,58,38,29.74,29.62,19,6,0,0.00
2012-12-16,67.9,53.9,43.6,38.0,33.7,24.0,79,50,20,29.72,29.56,13,3,0,0.00
2012-12-17,56.5,44.3,37.0,37.0,33.9,32.0,84,68,41,29.83,29.70,10,3,0,0.00
2012-12-18,62.9,49.5,39.2,35.0,32.1,28.0,77,54,27,29.79,29.70,9,2,0,0.00
2012-12-19,69.8,55.9,42.3,59.0,45.3,31.0,78,69,36,29.77,29.39,22,6,0,0.00
2012-12-20,53.2,39.0,32.5,37.0,16.8,-99.9,67,44,23,30.34,29.48,33,0,0,0.00
2012-12-21,58.1,40.3,25.6,18.0,13.8,11.0,55,37,17,30.38,30.20,7,1,0,0.00
2012-12-22,63.2,49.0,34.7,32.0,17.1,10.0,53,31,13,30.21,29.93,14,4,0,0.00
2012-12-23,61.3,48.2,32.1,45.0,36.1,24.0,83,64,46,29.91,29.76,12,2,0,0.00
2012-12-24,38.9,31.0,24.4,23.0,20.9,18.0,78,67,50,30.07,29.90,14,5,0,0.00
2012-12-25,30.9,27.1,22.9,21.0,17.9,11.0,77,69,60,30.16,29.94,21,11,0,0.00
2012-12-26,33.5,24.2,15.1,16.0,11.5,6.0,69,59,48,30.29,30.12,13,3,0,0.00
2012-12-27,35.8,30.1,23.8,27.0,22.2,16.0,80,72,65,30.13,29.91,19,4,0,0.00
2012-12-28,34.4,31.9,25.4,29.0,23.8,11.0,84,73,51,30.17,29.95,11,2,0,0.00
2012-12-29,41.3,28.5,18.4,15.0,12.7,10.0,70,53,33,30.41,30.17,11,2,0,0.00
2012-12-30,41.9,33.7,23.5,27.0,18.1,-99.9,74,56,40,30.40,30.17,13,-6,0,0.00
2012-12-31,38.5,36.5,34.9,36.0,33.7,29.0,91,89,70,30.18,29.96,12,3,0,0.71